Flag for South Korea Weather past 2 weeks in Gunsan, South Korea

Now
73 °F

Broken clouds.


Feels Like: 72 °F
Forecast: 69 / 80 °F
Wind: No wind

Location: Kunsan Ab

Current Time: Sep 2, 2015 at 3:50:13 PM

Latest Report: Sep 2, 2015 at 2:58 PM


Visibility: 10 mi

Pressure: 29.88 "Hg

Humidity: 89%

Dew point: 70 °F

Location of GunsanLocation

Historic Weather in Gunsan — Graph

°F

Gunsan temperature yesterday

Maximum temperature yesterday: 86 °F (at 1:58 PM)
Minimum temperature yesterday: 73 °F (at 5:58 AM)
Average temperature yesterday: 78 °F

Past Weeks' High & Low Weather Summary

 TemperatureHumidityPressure
High86 °F (Sep 1, 1:58 PM)100% (Aug 19, 12:58 AM)29.96 "Hg (Aug 19, 12:58 AM)
Low67 °F (Aug 29, 5:58 AM)47% (Aug 26, 4:58 PM)29.50 "Hg (Aug 25, 8:58 AM)
Average76 °F83%29.78 "Hg
* Reported Aug 18 2:58 PM — Sep 2 2:58 PM, Gunsan, Weather by CustomWeather, © 2015

Note: Actual official high and low records may vary slightly from our data, if they occured in-between our weather recording intervals... More about our weather records

Advertising

Gunsan weather history for previous 24 hours

 ConditionsComfort  
Time TempWeatherWind HumidityBarometerVisibility
2:58 PM
Wed, Sep 2
73 °FBroken clouds.No wind89%29.88 "Hg10 mi
1:58 PM72 °FLight rain. Mostly cloudy.5 mph87%29.90 "Hg10 mi
12:59 PM70 °FLight rain. Fog.17 mph100%29.91 "Hg10 mi
11:58 AM78 °FThundershowers. Mostly cloudy.8 mph75%29.91 "Hg10 mi
10:58 AM80 °FBroken clouds.5 mph70%29.91 "Hg10 mi
9:58 AM80 °FPassing clouds.7 mph72%29.91 "Hg10 mi
8:58 AM77 °FPassing clouds.6 mph82%29.90 "Hg10 mi
7:58 AM74 °FPassing clouds.5 mph94%29.91 "Hg10 mi
5:58 AM72 °FClear.5 mph99%29.89 "Hg9 mi
4:58 AM73 °FClear.7 mph96%29.89 "Hg10 mi
3:58 AM72 °FClear.7 mph98%29.89 "Hg10 mi
2:58 AM73 °FClear.6 mph97%29.89 "Hg10 mi
1:58 AM73 °FClear.5 mph96%29.89 "Hg10 mi
12:58 AM74 °FClear.6 mph91%29.88 "Hg10 mi
11:58 PM
Tue, Sep 1
74 °FClear.7 mph95%29.87 "Hg9 mi
10:58 PM75 °FPassing clouds.1 mph89%29.86 "Hg10 mi
9:58 PM75 °FPassing clouds.6 mph87%29.86 "Hg10 mi
8:58 PM78 °FPassing clouds.5 mph69%29.84 "Hg10 mi
7:58 PM79 °FPassing clouds.2 mph69%29.82 "Hg10 mi
6:58 PM79 °FScattered clouds.6 mph67%29.80 "Hg10 mi
5:58 PM80 °FBroken clouds.8 mph65%29.80 "Hg10 mi
4:58 PM83 °FScattered clouds.13 mph64%29.78 "Hg10 mi
3:58 PM85 °FBroken clouds.12 mph55%29.78 "Hg10 mi
Weather by CustomWeather, © 2015

See weather overviewHow to use our weather pages